Fairbanks, AK

10:53 AM AKDT on March 27, 2017 (GMT -0800)
Fairbanks International

Weather History for PAFA - July, 2013

Change the Weather History Date:

Thursday, July 25, 2013

  Actual Average Record
Temperature  
Mean Temperature 67 °F 61 °F  
Max Temperature 75 °F 71 °F 93 °F (1955)
Min Temperature 59 °F 52 °F 40 °F (1958)
Degree Days  
Heating Degree Days 0 4  
Month to date heating degree days 67 81  
Since 1 June heating degree days 138 241  
Since 1 July heating degree days 67 81  
Cooling Degree Days 2 1  
Month to date cooling degree days 33 29  
Year to date cooling degree days 181 53  
Since 1 June cooling degree days 168 52  
Growing Degree Days 16 (Base 50)    
Moisture  
Dew Point 50 °F    
Average Humidity 57    
Maximum Humidity 83    
Minimum Humidity 29    
Precipitation  
Precipitation T in 0.07 in 0.72 in (1984)
Month to date precipitation 1.01 1.72  
Year to date precipitation 3.78 5.25  
Snow  
Snow 0.00 in 0.00 in 0.00 in (2002)
Month to date snowfall 0.0 0.0  
Since 1 June snowfall 0.0 0.0  
Since 1 July snowfall 0.0 0.0  
Snow Depth 0.00 in    
Sea Level Pressure  
Sea Level Pressure 30.02 in    
Wind  
Wind Speed 7 mph (WSW)    
Max Wind Speed 10 mph    
Max Gust Speed -    
Visibility 10 miles    
Events Rain    
T = Trace of Precipitation, MM = Missing Value Source: NWS Daily Summary

Daily Weather History Graph

Daily Weather History Graph

Search for Another Location

Airport or City:

Trip Planner

Search our weather history database for the weather conditions in past years. The results will help you decide how hot, cold, wet, or windy it might be!

Date:

Astronomy

Jul. 25, 2013 Rise Set
Actual Time 4:28 AM AKDT 11:24 PM AKDT
Civil Twilight 2:30 AM AKDT 1:25 AM AKDT
Nautical Twilight Sun does not rise Sun does not rise
Astronomical Twilight Sun does not rise Sun does not rise
Moon 10:57 PM AKDT (7/25) 10:11 AM AKDT (7/25)
Length of Visible Light 22h 55m
Length of Day
18h 55m
Waning Gibbous, 87% of the Moon is Illuminated
Jul 25
Waning Gibbous
Jul 29
Last Quarter
Aug 6
New
Aug 14
First Quarter
Aug 20
Full

Hourly Weather History & Observations

Time (AKDT) Temp. Dew Point Humidity Pressure Visibility Wind Dir Wind Speed Gust Speed Precip Events Conditions
12:53 AM 66.0 °F 55.9 °F 70% 29.97 in 10.0 mi West 9.2 mph - N/A   Mostly Cloudy
1:53 AM 64.9 °F 52.0 °F 63% 29.98 in 10.0 mi WNW 10.4 mph - N/A   Mostly Cloudy
2:53 AM 64.0 °F 51.1 °F 63% 29.98 in 10.0 mi WNW 6.9 mph - N/A   Mostly Cloudy
3:53 AM 62.1 °F 52.0 °F 70% 29.99 in 10.0 mi West 8.1 mph - N/A   Overcast
4:53 AM 62.1 °F 52.0 °F 70% 30.00 in 10.0 mi NNW 6.9 mph - 0.00 in Rain Light Rain
5:53 AM 60.1 °F 54.0 °F 80% 30.01 in 10.0 mi Calm Calm - 0.00 in Rain Light Rain
6:53 AM 60.1 °F 52.0 °F 75% 30.01 in 10.0 mi WSW 5.8 mph - 0.00 in   Overcast
7:53 AM 59.0 °F 54.0 °F 83% 30.02 in 10.0 mi WSW 4.6 mph - 0.00 in   Overcast
8:53 AM 60.1 °F 53.1 °F 78% 30.03 in 10.0 mi WSW 4.6 mph - N/A   Mostly Cloudy
9:53 AM 61.0 °F 53.1 °F 75% 30.03 in 10.0 mi Variable 5.8 mph - N/A   Mostly Cloudy
10:53 AM 62.1 °F 53.1 °F 72% 30.03 in 10.0 mi SSW 4.6 mph - N/A   Mostly Cloudy
11:53 AM 66.0 °F 53.1 °F 63% 30.02 in 10.0 mi South 8.1 mph - N/A   Scattered Clouds
12:53 PM 66.9 °F 52.0 °F 59% 30.02 in 10.0 mi SSW 8.1 mph - N/A   Scattered Clouds
1:53 PM 71.1 °F 48.9 °F 45% 30.02 in 10.0 mi WSW 3.5 mph - N/A   Scattered Clouds
2:53 PM 73.0 °F 39.0 °F 29% 30.02 in 10.0 mi WSW 4.6 mph - N/A   Scattered Clouds
3:53 PM 73.0 °F 48.0 °F 41% 30.02 in 10.0 mi Variable 4.6 mph - N/A   Partly Cloudy
4:53 PM 71.1 °F 45.0 °F 39% 30.02 in 10.0 mi Calm Calm - N/A   Mostly Cloudy
5:53 PM 73.9 °F 45.0 °F 35% 30.01 in 10.0 mi West 8.1 mph - N/A   Mostly Cloudy
6:53 PM 73.0 °F 48.0 °F 41% 30.01 in 10.0 mi SW 4.6 mph - N/A   Mostly Cloudy
7:53 PM 70.0 °F 48.9 °F 47% 30.02 in 10.0 mi SW 4.6 mph - N/A   Mostly Cloudy
8:53 PM 70.0 °F 46.9 °F 44% 30.02 in 10.0 mi SW 5.8 mph - N/A   Mostly Cloudy
9:53 PM 68.0 °F 48.0 °F 49% 30.04 in 10.0 mi SSW 6.9 mph - N/A   Scattered Clouds
10:53 PM 64.9 °F 48.0 °F 54% 30.05 in 10.0 mi SW 4.6 mph - N/A   Mostly Cloudy
11:53 PM 63.0 °F 48.0 °F 58% 30.06 in 10.0 mi SSW 4.6 mph - N/A   Mostly Cloudy